Погода в Пижме

Россия / Нижегородская область     57°51′41″N   47°06′48″E
темп.,
°C
ветер,
м/с
пор.,
м/с
влажн.,
%
обл.,
%
осадки,
мм/ч
давл.,
гПа
погр.,
м
5 марта, пт
пт500:00−12сз389555 0.0 997168
03:00−16зсз239627 0.0 100020
06:00−16з229720 0.0 100020
09:00−12зюз359626 0.0 1001221
12:00−7з369398 0.1 1002535
15:00−6з468999 0.2 1003881
18:00−9зсз2596100 0.3 1005121
21:00−12ссз269396 0.5 1008188
6 марта, сб
сб600:00−16сз1293100 0.0 100920
03:00−18зсз239475 0.0 101127
06:00−20зсз2310039 0.0 101247
09:00−16зсз259525 0.0 1013208
12:00−11з249176 0.0 1013493
15:00−10з358988 0.1 1012704
18:00−14з229596 0.1 101120
21:00−16зсз129794 0.1 101220
7 марта, вс
вс700:00−18з129971 0.0 101120
03:00−20юз1210069 0.1 101020
06:00−20ююз2310019 0.0 100927
09:00−16ююз369531 0.0 1007233
12:00−11ююв499187 0.0 1004446
15:00−9ююв6119193 0.0 1001632
18:00−9ююв51294100 0.9 998807
21:00−8ююв51194100 1.9 995776
8 марта, пн
пн800:00−7ююв41094100 1.0 992655
03:00−7ю3896100 2.1 991485
06:00−12зюз4993100 0.2 992315
09:00−12юз259371 0.2 993250
12:00−7ю238950 0.0 994455
15:00−7ююв239069 0.1 995506
18:00−10вюв1295100 0.1 99521
21:00−12с2297100 0.1 99722
9 марта, вт
вт900:00−15ссз369766 0.0 999133
03:00−16ссз379782 0.1 1003196
06:00−18ссз389798 0.0 1006219
09:00−17ссз369599 0.1 1008346
12:00−14ссз3592100 0.1 1010506
15:00−13ссз3591100 0.2 1011609
18:00−16ссз2796100 0.2 1012289
21:00−18с3895100 0.3 1014366